ELEKTRON 3 DEB, 831

Orbit data source: Space-Track

ELEKTRON 3 DEB, 831 is space debris in LEO originally from a launch on Fri, 10 Jul 1964 UTC launched from the Tyuratam Missile And Space Complex (TTMTR). Debris objects in space refer to the collection of defunct objects orbiting the Earth. Examples of debris include non-operational satellites, rocket bodies, and fragments generated from explosions, collisions, or faulty payload assembly.

Loading next visibility...
Identifier
831, 1964-038C
Orbit
LEO
Country
Flag of CISCIS
Related business
Manufacturer
OKB-1
Mission
Spacecraft
Bus & Motor
ADAPTER, Unknown motor
Mass
Unknown
Launch date (UTC)
1964-07-10 (61 years ago)
Launch vehicle
Unknown
Launch site
Tyuratam Missile And Space Complex (TTMTR)
Object type
Payload
Rocket body
Debris
Shape & HBR
Unknown shape, 0.3 m
Radar Cross Section
Medium (>0.1 m² and <1 m²)

Expand to show TLE details & history
Last TLE update: 14 hours ago

TLE from 14 hours ago
0 ELEKTRON 3 DEB
1   831U 64038C   25298.36703421  .00024081  00000-0  23965-2 0  9997
2   831  60.6813  72.8624 1276725 263.5422  81.9016 12.71947443335931
Epoch: 2025-10-25T08:48Z
TLE epoch observation values (Epoch: 2025-10-25T08:48:31.755Z)
Latitude
-0.00007°
Longitude
-93.26855°
Altitude
1,361.96 km
Speed
7.184 km/s
True Right ascension
04h 51m 26s
True Declination
0° 00' 00"
Sunlit
Object was in full shadow at epoch
Visualization orbit readout
Latitude
Unknown
Longitude
Unknown
Altitude
Unknown
Speed
Unknown
Apparent Right ascension
Unknown
Apparent Declination
Unknown
Sunlit
N/A
Visualization observer readout
Local Sidereal Time
18:20:22
Azimuth
Unknown
Elevation
Unknown
Doppler factor
Unknown
Orbital elements
Apogee altitude
2,362.838 km
Perigee altitude
383.572 km
Semi-major axis
7,751.342 km
Eccentricity
0.12767
Inclination
60.6813°
RAAN
72.8624°
Arg. of periapsis
263.5422°
True anomaly
96.55686°
Mean anomaly
81.9016°
Eccentric anomaly
89.21601°
Mean motion
3.18037 °/min
Orbital period
113.19 mins
BSTAR
0.0023965
Loading maneuver chart data...
Computing Atmospheric mass density...
Loading historical data...
Loading historical data...
Loading historical data...
Loading historical data...
Loading historical data...
Loading historical data...
Loading historical data...

Documentation

Showing up to 5 results
|